EW5123 Weather Reports


time (UTC)temp
C
wind
direction
speed
KPH
gust
KPH
rain 1hr
cm
rain 24hr
cm
rain mn
cm
humidity
%
barometer
mb
20260902184725 28 6 1.6 9.7 0.00 0.00 0.00 24 984.3
20260902184224 28 312 1.6 6.4 0.00 0.00 0.00 24 984.4
20260902183725 28 329 1.6 11.3 0.00 0.00 0.00 25 984.4
20260902183224 28 293 1.6 11.3 0.00 0.00 0.00 23 984.4
20260902182725 29 356 1.6 8.0 0.00 0.00 0.00 23 984.6
20260902182228 28 347 0.0 4.8 0.00 0.00 0.00 24 984.8
20260902182224 29 328 0.0 8.0 0.00 0.00 0.00 24 984.7
20260902181831 28 285 0.0 4.8 0.00 0.00 0.00 25 985.0
20260902181330 27 11 0.0 4.8 0.00 0.00 0.00 25 985.1
20260902180830 26 354 3.2 12.9 0.00 0.00 0.00 25 985.2
20260902175727 27 321 3.2 11.3 0.00 0.00 0.00 25 985.2
20260902175723 26 323 4.8 12.9 0.00 0.00 0.00 26 985.2
20260902174723 27 35 1.6 6.4 0.00 0.00 0.00 25 985.2
20260902174223 27 339 1.6 6.4 0.00 0.00 0.00 24 985.3
20260902173723 27 5 0.0 6.4 0.00 0.00 0.00 26 985.4
20260902173222 27 111 3.2 11.3 0.00 0.00 0.00 26 985.6
20260902172720 26 210 3.2 11.3 0.00 0.00 0.00 26 985.6
20260902172221 26 272 1.6 9.7 0.00 0.00 0.00 26 985.6
20260902171720 26 325 1.6 6.4 0.00 0.00 0.00 25 985.7
20260902171221 26 335 1.6 9.7 0.00 0.00 0.00 25 985.7
20260902170720 26 315 3.2 12.9 0.00 0.00 0.00 26 985.8
20260902170225 26 179 1.6 12.9 0.00 0.00 0.00 25 985.9
20260902170220 26 193 3.2 12.9 0.00 0.00 0.00 26 985.8
20260902165223 26 221 3.2 14.5 0.00 0.00 0.00 26 985.9
20260902165218 26 123 4.8 14.5 0.00 0.00 0.00 26 985.8
20260902164824 26 314 3.2 14.5 0.00 0.00 0.00 26 985.9
20260902163719 26 229 3.2 14.5 0.00 0.00 0.00 25 985.8
20260902163218 26 128 3.2 9.7 0.00 0.00 0.00 26 985.8
20260902162719 26 205 1.6 9.7 0.00 0.00 0.00 25 985.8
20260902162222 25 110 3.2 9.7 0.00 0.00 0.00 27 985.9
20260902162218 26 217 3.2 9.7 0.00 0.00 0.00 25 985.8
20260902161217 25 304 1.6 8.0 0.00 0.00 0.00 27 985.9
20260902160718 25 226 3.2 9.7 0.00 0.00 0.00 28 985.9
20260902160218 25 197 3.2 9.7 0.00 0.00 0.00 28 986.0
20260902155718 25 196 1.6 8.0 0.00 0.00 0.00 28 986.0
20260902155221 24 89 1.6 9.7 0.00 0.00 0.00 28 986.0
20260902154716 24 203 1.6 9.7 0.00 0.00 0.00 28 986.1
20260902154221 24 217 1.6 6.4 0.00 0.00 0.00 30 986.1
20260902154217 24 219 1.6 9.7 0.00 0.00 0.00 28 986.1
20260902153214 24 184 1.6 6.4 0.00 0.00 0.00 29 986.1
20260902152714 23 145 1.6 4.8 0.00 0.00 0.00 30 986.3
20260902152214 23 214 1.6 4.8 0.00 0.00 0.00 31 986.3
20260902151714 23 154 1.6 6.4 0.00 0.00 0.00 30 986.3
20260902151214 23 205 0.0 6.4 0.00 0.00 0.00 30 986.3
20260902150714 22 201 0.0 3.2 0.00 0.00 0.00 31 986.1
20260902150214 22 235 0.0 3.2 0.00 0.00 0.00 34 986.3
20260902145719 21 216 0.0 4.8 0.00 0.00 0.00 35 986.4
20260902145714 21 216 0.0 4.8 0.00 0.00 0.00 34 986.4
20260902144718 20 214 0.0 4.8 0.00 0.00 0.00 37 986.4
20260902144713 20 188 1.6 4.8 0.00 0.00 0.00 38 986.4
20260902143712 19 130 1.6 4.8 0.00 0.00 0.00 40 986.3
20260902143212 19 202 0.0 4.8 0.00 0.00 0.00 45 986.4
20260902142716 17 228 0.0 1.6 0.00 0.00 0.00 50 986.3
20260902142712 18 258 0.0 3.2 0.00 0.00 0.00 44 986.3
20260902141717 15 191 0.0 3.2 0.00 0.00 0.00 65 986.0
20260902141712 16 192 0.0 3.2 0.00 0.00 0.00 57 986.3
20260902141322 14 146 0.0 3.2 0.00 0.00 0.00 67 986.0
20260902141212 16 167 0.0 3.2 0.00 0.00 0.00 60 986.1
20260902135711 14 157 0.0 1.6 0.00 0.00 0.00 70 986.0
20260902135210 13 151 0.0 1.6 0.00 0.00 0.00 72 986.0
20260902134710 13 138 0.0 1.6 0.00 0.00 0.00 73 986.1
20260902134210 12 134 0.0 1.6 0.00 0.00 0.00 71 986.1
20260902133710 12 134 0.0 0.0 0.00 0.00 0.00 70 986.1
20260902133210 12 134 0.0 0.0 0.00 0.00 0.00 71 986.0
20260902132712 12 134 0.0 1.6 0.00 0.00 0.00 72 985.9
20260902132209 12 134 0.0 1.6 0.00 0.00 0.00 76 985.9
20260902131710 11 160 0.0 1.6 0.00 0.00 0.00 77 985.9
20260902131210 11 156 0.0 0.0 0.00 0.00 0.00 78 985.9
20260902130713 11 133 0.0 0.0 0.00 0.00 0.00 78 985.8
20260902130708 10 133 0.0 0.0 0.00 0.00 0.00 78 985.7
20260902125708 10 133 0.0 0.0 0.00 0.00 0.00 76 985.7
20260902125207 11 103 0.0 0.0 0.00 0.00 0.00 76 985.7
20260902124706 10 23 0.0 1.6 0.00 0.00 0.00 77 985.6
20260902124206 10 338 0.0 1.6 0.00 0.00 0.00 76 985.6
20260902123706 11 337 0.0 1.6 0.00 0.00 0.00 75 985.4
20260902123207 10 140 0.0 0.0 0.00 0.00 0.00 77 985.3
20260902122705 10 152 0.0 0.0 0.00 0.00 0.00 78 985.2
20260902122204 10 152 0.0 0.0 0.00 0.00 0.00 78 985.2
20260902121704 10 122 0.0 0.0 0.00 0.00 0.00 77 985.2
20260902121208 11 122 0.0 1.6 0.00 0.00 0.00 76 985.1
20260902121204 10 122 0.0 0.0 0.00 0.00 0.00 76 985.1
20260902120204 11 122 0.0 1.6 0.00 0.00 0.00 76 985.1
20260902115707 11 172 0.0 0.0 0.00 0.00 0.00 76 985.1
20260902115703 11 172 0.0 0.0 0.00 0.00 0.00 76 985.0
20260902114704 11 172 0.0 0.0 0.00 0.00 0.00 77 985.0
20260902114203 11 172 0.0 1.6 0.00 0.00 0.00 77 985.0
20260902113704 11 172 0.0 1.6 0.00 0.00 0.00 77 985.0
20260902113204 11 198 0.0 0.0 0.00 0.00 0.00 77 984.8
20260902112701 11 198 0.0 0.0 0.00 0.00 0.00 76 984.8
20260902112202 11 198 0.0 0.0 0.00 0.00 0.00 75 984.8
20260902111205 12 198 0.0 0.0 0.00 0.00 0.00 73 985.0
20260902111201 12 198 0.0 0.0 0.00 0.00 0.00 74 985.0
20260902110202 12 198 0.0 0.0 0.00 0.00 0.00 72 984.8
20260902105701 13 198 0.0 0.0 0.00 0.00 0.00 72 985.0
20260902105202 13 198 0.0 0.0 0.00 0.00 0.00 71 985.0
20260902104702 13 198 0.0 1.6 0.00 0.00 0.00 71 985.0
20260902104205 12 200 0.0 1.6 0.00 0.00 0.00 74 985.0
20260902104201 13 196 0.0 1.6 0.00 0.00 0.00 72 985.0
20260902103807 12 193 0.0 1.6 0.00 0.00 0.00 76 985.0
20260902102702 12 148 0.0 0.0 0.00 0.00 0.00 77 984.8
20260902102201 11 148 0.0 0.0 0.00 0.00 0.00 78 984.8
20260902101701 11 148 0.0 0.0 0.00 0.00 0.00 77 984.8
20260902101202 12 148 0.0 0.0 0.00 0.00 0.00 76 984.8
20260902100701 12 148 0.0 0.0 0.00 0.00 0.00 76 984.8
20260902100202 12 148 0.0 0.0 0.00 0.00 0.00 76 984.8
20260902095702 12 148 0.0 0.0 0.00 0.00 0.00 76 984.8
20260902095202 12 148 0.0 0.0 0.00 0.00 0.00 76 984.7
20260902094702 12 148 0.0 0.0 0.00 0.00 0.00 76 984.7
20260902094201 12 148 0.0 0.0 0.00 0.00 0.00 76 984.8
20260902093710 12 148 0.0 0.0 0.00 0.00 0.00 75 984.8
20260902093706 12 148 0.0 0.0 0.00 0.00 0.00 75 984.8
20260902092701 12 142 0.0 0.0 0.00 0.00 0.00 74 984.8
20260902092201 12 142 0.0 0.0 0.00 0.00 0.00 73 985.0
20260902091701 12 142 0.0 0.0 0.00 0.00 0.00 74 985.0
20260902091201 12 142 0.0 0.0 0.00 0.00 0.00 74 984.8
20260902090701 12 142 0.0 0.0 0.00 0.00 0.00 74 985.0
20260902090203 12 142 0.0 0.0 0.00 0.00 0.00 73 985.0
20260902085700 13 142 0.0 0.0 0.00 0.00 0.00 72 985.0
20260902085202 13 134 0.0 0.0 0.00 0.00 0.00 71 985.0
20260902084702 13 134 0.0 0.0 0.00 0.00 0.00 71 984.8
20260902084201 13 134 0.0 0.0 0.00 0.00 0.00 72 984.8
20260902083705 13 134 0.0 0.0 0.00 0.00 0.00 72 985.0
20260902083701 13 135 0.0 0.0 0.00 0.00 0.00 71 985.0
20260902082659 13 135 0.0 0.0 0.00 0.00 0.00 70 985.0
20260902082159 14 135 0.0 0.0 0.00 0.00 0.00 69 985.0
20260902081659 14 135 0.0 0.0 0.00 0.00 0.00 68 985.0
20260902081200 14 164 0.0 0.0 0.00 0.00 0.00 69 985.0
20260902080701 14 164 0.0 1.6 0.00 0.00 0.00 69 985.1
20260902080203 15 155 0.0 0.0 0.00 0.00 0.00 67 985.2
20260902080159 14 164 0.0 1.6 0.00 0.00 0.00 69 985.2
20260902075806 15 154 0.0 1.6 0.00 0.00 0.00 68 985.3
20260902075159 15 154 0.0 0.0 0.00 0.00 0.00 68 985.2
20260902074200 14 155 0.0 1.6 0.00 0.00 0.00 69 985.2
20260902073700 14 202 0.0 1.6 0.00 0.00 0.00 71 985.3
20260902073159 14 210 0.0 0.0 0.00 0.00 0.00 71 985.2
20260902072704 15 162 0.0 0.0 0.00 0.00 0.00 70 985.1
20260902072700 14 162 0.0 0.0 0.00 0.00 0.00 71 985.2
20260902071702 15 162 0.0 0.0 0.00 0.00 0.00 69 985.1
20260902071157 15 188 0.0 0.0 0.00 0.00 0.00 68 985.0
20260902070658 16 234 0.0 0.0 0.00 0.00 0.00 67 985.0
20260902070157 16 234 0.0 0.0 0.00 0.00 0.00 65 985.0
20260902065702 16 234 0.0 0.0 0.00 0.00 0.00 63 984.8
20260902065158 17 234 0.0 0.0 0.00 0.00 0.00 60 985.0
20260902064658 17 234 0.0 0.0 0.00 0.00 0.00 58 985.0
20260902064157 18 234 0.0 0.0 0.00 0.00 0.00 56 985.0
20260902063657 18 234 0.0 1.6 0.00 0.00 0.00 54 985.0
20260902063155 18 234 0.0 1.6 0.00 0.00 0.00 53 985.0
20260902062655 18 224 0.0 0.0 0.00 0.00 0.00 53 985.0
20260902062155 18 233 0.0 1.6 0.00 0.00 0.00 53 984.8
20260902060656 19 210 0.0 3.2 0.00 0.00 0.00 53 985.0
20260902060155 19 211 0.0 3.2 0.00 0.00 0.00 53 985.0
20260902055653 19 207 0.0 1.6 0.00 0.00 0.00 53 985.0
20260902055154 19 209 0.0 4.8 0.00 0.00 0.00 52 985.1
20260902054651 19 190 0.0 4.8 0.00 0.00 0.00 53 985.1
20260902054150 19 207 1.6 9.7 0.00 0.00 0.00 55 985.1
20260902053651 19 233 4.8 9.7 0.00 0.00 0.00 56 985.1
20260902053149 19 210 4.8 11.3 0.00 0.00 0.00 57 985.2
20260902052648 20 214 4.8 11.3 0.00 0.00 0.00 57 985.2
20260902052148 20 217 4.8 12.9 0.00 0.00 0.00 57 985.2
20260902051648 20 213 6.4 12.9 0.00 0.00 0.00 57 985.3
20260902051148 20 214 8.0 16.1 0.00 0.00 0.00 56 985.2
20260902050648 20 207 11.3 19.3 0.00 0.00 0.00 56 985.2
20260902050148 20 189 11.3 22.5 0.00 0.00 0.00 56 985.1
20260902045648 20 195 11.3 22.5 0.00 0.00 0.00 57 985.1
20260902045150 20 205 8.0 17.7 0.00 0.00 0.00 57 984.8
20260902045146 20 206 9.7 22.5 0.00 0.00 0.00 57 985.0
20260902044145 20 147 9.7 24.1 0.00 0.00 0.00 57 984.8
20260902043646 20 151 9.7 24.1 0.00 0.00 0.00 57 984.8
20260902043146 20 181 8.0 22.5 0.00 0.00 0.00 57 985.0
20260902042645 20 164 8.0 17.7 0.00 0.00 0.00 57 985.0
20260902042149 20 124 9.7 19.3 0.00 0.00 0.00 56 985.1
20260902042145 20 138 9.7 19.3 0.00 0.00 0.00 56 985.1
20260902041145 20 150 8.0 17.7 0.00 0.00 0.00 56 985.1
20260902040650 20 210 8.0 24.1 0.00 0.00 0.00 55 985.1
20260902040646 20 181 8.0 17.7 0.00 0.00 0.00 55 985.0
20260902035649 20 172 8.0 20.9 0.00 0.00 0.00 55 985.0
20260902035644 20 55 8.0 24.1 0.00 0.00 0.00 55 985.0
20260902035249 20 189 6.4 14.5 0.00 0.00 0.00 55 985.1
20260902034144 20 199 6.4 14.5 0.00 0.00 0.00 54 985.0
20260902033644 20 170 4.8 9.7 0.00 0.00 0.00 54 985.0
20260902033143 20 201 4.8 12.9 0.00 0.00 0.00 53 985.0
20260902032642 20 130 4.8 12.9 0.00 0.00 0.00 54 985.0
20260902032140 20 164 3.2 12.9 0.00 0.00 0.00 54 985.0
20260902031639 19 188 1.6 9.7 0.00 0.00 0.00 55 985.0
20260902031140 19 129 0.0 4.8 0.00 0.00 0.00 56 984.8
20260902030640 19 120 0.0 3.2 0.00 0.00 0.00 55 984.8
20260902030139 20 129 0.0 1.6 0.00 0.00 0.00 55 984.7
20260902025639 20 129 0.0 1.6 0.00 0.00 0.00 54 984.7
20260902025140 20 145 0.0 1.6 0.00 0.00 0.00 54 984.7
20260902024639 20 159 0.0 3.2 0.00 0.00 0.00 54 984.6
20260902024140 20 167 0.0 3.2 0.00 0.00 0.00 53 984.5
20260902023645 21 188 0.0 3.2 0.00 0.00 0.00 48 984.3
20260902023639 20 176 0.0 0.0 0.00 0.00 0.00 51 984.4
20260902023139 21 194 0.0 0.0 0.00 0.00 0.00 49 984.3
20260902022139 21 203 0.0 3.2 0.00 0.00 0.00 48 984.3
20260902021639 21 190 1.6 6.4 0.00 0.00 0.00 47 984.3
20260902021139 22 170 1.6 6.4 0.00 0.00 0.00 46 984.1
20260902020640 22 208 0.0 4.8 0.00 0.00 0.00 45 984.0
20260902020140 22 220 0.0 1.6 0.00 0.00 0.00 45 983.9
20260902015643 23 12 0.0 0.0 0.00 0.00 0.00 44 983.8
20260902015639 22 245 0.0 0.0 0.00 0.00 0.00 44 983.9
20260902014639 23 12 0.0 1.6 0.00 0.00 0.00 43 983.9
20260902014139 23 8 0.0 1.6 0.00 0.00 0.00 43 983.8
20260902013643 23 311 0.0 4.8 0.00 0.00 0.00 41 983.8
20260902013639 23 4 0.0 3.2 0.00 0.00 0.00 42 983.7
20260902012640 23 321 0.0 4.8 0.00 0.00 0.00 41 983.7
20260902012137 24 357 0.0 3.2 0.00 0.00 0.00 40 983.7
20260902011637 24 356 1.6 8.0 0.00 0.00 0.00 40 983.7
20260902011137 24 282 1.6 9.7 0.00 0.00 0.00 39 983.7
20260902010635 24 276 1.6 9.7 0.00 0.00 0.00 38 983.7
20260902010135 25 310 0.0 4.8 0.00 0.00 0.00 38 983.8
20260902005639 25 338 1.6 6.4 0.00 0.00 0.00 36 983.7
20260902005635 25 273 0.0 6.4 0.00 0.00 0.00 38 983.8
20260902004636 25 316 1.6 8.0 0.00 0.00 0.00 36 983.5
20260902004135 26 319 0.0 8.0 0.00 0.00 0.00 35 983.5
20260902003635 26 237 1.6 11.3 0.00 0.00 0.00 34 983.5
20260902003142 26 342 1.6 11.3 0.00 0.00 0.00 32 983.5
20260902003136 26 330 3.2 11.3 0.00 0.00 0.00 33 983.5
20260902002637 26 2 1.6 11.3 0.00 0.00 0.00 33 983.4
20260902001633 26 14 3.2 14.5 0.00 0.00 0.00 31 983.5
20260902001138 27 307 3.2 14.5 0.00 0.00 0.00 31 983.5
20260902000633 27 330 1.6 9.7 0.00 0.00 0.00 29 983.4
20260902000133 27 309 1.6 9.7 0.00 0.00 0.00 29 983.4
20260901235633 27 304 1.6 9.7 0.00 0.00 0.00 29 983.4
20260901235134 27 317 0.0 3.2 0.00 0.00 0.00 29 983.4
20260901234637 27 145 0.0 1.6 0.00 0.00 0.00 27 983.4
20260901234633 27 170 0.0 1.6 0.00 0.00 0.00 27 983.4
20260901233633 27 145 0.0 1.6 0.00 0.00 0.00 27 983.4
20260901233133 27 148 0.0 0.0 0.00 0.00 0.00 26 983.3
20260901232633 27 148 0.0 1.6 0.00 0.00 0.00 26 983.4
20260901232133 27 148 0.0 1.6 0.00 0.00 0.00 26 983.4
20260901231633 27 195 0.0 1.6 0.00 0.00 0.00 26 983.4
20260901231133 28 115 0.0 1.6 0.00 0.00 0.00 25 983.4
20260901230631 28 146 0.0 4.8 0.00 0.00 0.00 25 983.4
20260901230131 28 137 1.6 8.0 0.00 0.00 0.00 25 983.4
20260901225631 28 185 1.6 8.0 0.00 0.00 0.00 24 983.4
20260901225129 29 184 0.0 1.6 0.00 0.00 0.00 25 983.4
20260901224629 30 141 0.0 4.8 0.00 0.00 0.00 24 983.4
20260901224129 30 285 0.0 4.8 0.00 0.00 0.00 24 983.4
20260901223634 30 236 0.0 4.8 0.00 0.00 0.00 25 983.5
20260901223629 30 7 0.0 3.2 0.00 0.00 0.00 23 983.5
20260901222629 29 334 0.0 4.8 0.00 0.00 0.00 26 983.5
20260901222128 30 337 0.0 1.6 0.00 0.00 0.00 24 983.7
20260901221627 30 246 0.0 1.6 0.00 0.00 0.00 26 983.8
20260901221131 29 219 0.0 3.2 0.00 0.00 0.00 23 983.8
20260901221127 29 156 0.0 0.0 0.00 0.00 0.00 25 983.8
20260901220127 28 36 0.0 3.2 0.00 0.00 0.00 23 983.9
20260901215627 29 131 0.0 1.6 0.00 0.00 0.00 24 983.9
20260901215127 28 158 0.0 1.6 0.00 0.00 0.00 24 984.0
20260901214627 28 117 0.0 1.6 0.00 0.00 0.00 25 984.0
20260901214127 27 1 0.0 1.6 0.00 0.00 0.00 25 984.1
20260901213627 27 141 0.0 3.2 0.00 0.00 0.00 27 984.1
20260901213125 27 326 0.0 3.2 0.00 0.00 0.00 26 984.1
20260901212630 27 210 1.6 8.0 0.00 0.00 0.00 27 984.3
20260901212625 26 290 1.6 4.8 0.00 0.00 0.00 27 984.3
20260901212125 27 248 1.6 4.8 0.00 0.00 0.00 26 984.3
20260901211130 27 193 1.6 8.0 0.00 0.00 0.00 26 984.4
20260901210623 27 245 0.0 4.8 0.00 0.00 0.00 25 984.5
20260901210123 27 213 0.0 6.4 0.00 0.00 0.00 26 984.5
20260901205632 28 102 1.6 11.3 0.00 0.00 0.00 25 984.6
20260901205623 28 297 0.0 6.4 0.00 0.00 0.00 25 984.5
20260901204628 29 169 3.2 9.7 0.00 0.00 0.00 24 984.6
20260901204624 28 124 3.2 11.3 0.00 0.00 0.00 26 984.6
20260901204228 30 217 0.0 6.4 0.00 0.00 0.00 27 984.7
20260901203622 30 159 1.6 8.0 0.00 0.00 0.00 24 984.7
20260901202621 29 206 1.6 8.0 0.00 0.00 0.00 26 984.8
20260901202121 30 139 1.6 8.0 0.00 0.00 0.00 26 984.8
20260901201621 30 203 0.0 3.2 0.00 0.00 0.00 25 985.0
20260901201121 29 114 0.0 3.2 0.00 0.00 0.00 26 985.0
20260901200621 29 129 0.0 1.6 0.00 0.00 0.00 27 985.0
20260901200120 28 131 0.0 4.8 0.00 0.00 0.00 28 985.1
20260901195622 28 116 1.6 4.8 0.00 0.00 0.00 28 985.2
20260901195618 27 122 3.2 8.0 0.00 0.00 0.00 28 985.3
20260901195223 27 243 3.2 12.9 0.00 0.00 0.00 30 985.3
20260901194116 27 238 3.2 12.9 0.00 0.00 0.00 29 985.3
20260901193616 26 262 1.6 8.0 0.00 0.00 0.00 30 985.6
20260901193121 26 236 1.6 9.7 0.00 0.00 0.00 30 985.6
20260901193116 26 229 1.6 4.8 0.00 0.00 0.00 29 985.6
20260901192115 26 192 1.6 9.7 0.00 0.00 0.00 30 985.7
20260901191615 26 333 3.2 9.7 0.00 0.00 0.00 29 985.8
20260901191114 26 191 3.2 9.7 0.00 0.00 0.00 28 985.8
20260901190614 27 309 6.4 17.7 0.00 0.00 0.00 27 985.9
20260901190118 27 182 3.2 17.7 0.00 0.00 0.00 30 985.8
20260901190114 27 256 6.4 17.7 0.00 0.00 0.00 28 985.8